This demonstration page uses our WeatherBlox Daily Observations layout. Learn more.

Left ArrowRight Arrow

Hourly Observations for March 11, 2015

Temp ( °F °C ) Dew Point ( °F °C ) Humidity (%) Winds ( mph kmh ) Pressure ( in mb ) Visibility ( mi km ) Precip ( " mm )
12:51 am 00:51 Clear 46 7.8 21 -6.1 37 37 ESE 6 9 30.01 1016 10 16 0.00 0.00
1:51 am 01:51 Clear 46 7.8 20 -6.7 35 35 SE 8 13 30.02 1017 10 16 0.00 0.00
2:51 am 02:51 Clear 51 10.6 20 -6.7 29 29 SE 10 17 30.01 1016 10 16 0.00 0.00
3:51 am 03:51 Clear 45 7.2 21 -6.1 39 39 E 8 13 30.03 1017 10 16 0.00 0.00
4:51 am 04:51 Clear 48 8.9 21 -6.1 34 34 SE 6 9 30.04 1017 10 16 0.00 0.00
5:51 am 05:51 Clear 50 10 20 -6.7 30 30 SE 8 13 30.07 1018 10 16 0.00 0.00
6:51 am 06:51 Sunny 51 10.6 20 -6.7 29 29 SSE 14 22 30.12 1020 10 16 0.00 0.00
7:51 am 07:51 Sunny 55 12.8 20 -6.7 25 25 SE 16 26 30.15 1021 10 16 0.00 0.00
8:51 am 08:51 Sunny 60 15.6 21 -6.1 22 22 SE 14 22 30.17 1022 10 16 0.00 0.00
9:51 am 09:51 Sunny 66 18.9 22 -5.6 19 19 SE 12 19 30.17 1022 10 16 0.00 0.00
10:51 am 10:51 Sunny 70 21.1 25 -3.9 18 18 SE 7 11 30.15 1021 10 16 0.00 0.00
11:51 am 11:51 Sunny 72 22.2 26 -3.3 18 18 S 7 11 30.14 1021 10 16 0.00 0.00
12:51 pm 12:51 Sunny 75 23.9 26 -3.3 16 16 SSE 9 15 30.10 1019 10 16 0.00 0.00
1:51 pm 13:51 Sunny 76 24.4 25 -3.9 15 15 SW 9 15 30.06 1018 10 16 0.00 0.00
2:51 pm 14:51 Sunny 77 25 20 -6.7 12 12 SE 8 13 30.03 1017 10 16 0.00 0.00
3:51 pm 15:51 Sunny 77 25 19 -7.2 11 11 SSW 6 9 30.02 1017 10 16 0.00 0.00
4:51 pm 16:51 Sunny 76 24.4 19 -7.2 12 12 SSE 9 15 30.00 1016 10 16 0.00 0.00
5:51 pm 17:51 Sunny 75 23.9 21 -6.1 13 13 S 8 13 29.99 1016 10 16 0.00 0.00
6:51 pm 18:51 Clear 69 20.6 23 -5 17 17 SSE 5 7 30.01 1016 10 16 0.00 0.00
7:51 pm 19:51 Clear 61 16.1 24 -4.4 24 24 E 6 9 30.03 1017 10 16 0.00 0.00
8:51 pm 20:51 Clear 60 15.6 22 -5.6 23 23 ESE 5 7 30.04 1017 10 16 0.00 0.00
9:51 pm 21:51 Clear 60 15.6 22 -5.6 23 23 SSE 6 9 30.04 1017 10 16 0.00 0.00
10:51 pm 22:51 Clear 56 13.3 24 -4.4 29 29 SE 5 7 30.04 1017 10 16 0.00 0.00
11:51 pm 23:51 Clear 55 12.8 25 -3.9 31 31 E 9 15 30.02 1017 10 16 0.00 0.00

Powered by AerisWeather